Regional Weather Roundup
Issued by NWS

Home | Current Version | Previous Version | Text Only | Print | Product List | Glossary On
Versions: 1 2 3 4 5 6 7 8 9 10 11 12 13 14 15 16 17 18 19 20 21 22 23 24 25 26 27 28 29 30 31 32 33 34 35 36 37 38 39 40 41 42 43 44 45 46 47 48 49 50
000
ASUS43 KTOP 301759
RWRKS

WEATHER ROUNDUP FOR KANSAS
NATIONAL WEATHER SERVICE GOODLAND KS
100 PM CDT SAT MAY 30 2015

NOTE:  "FAIR" INDICATES FEW OR NO CLOUDS BELOW 12,000 FEET WITH NO
SIGNIFICANT WEATHER AND/OR OBSTRUCTIONS TO VISIBILITY.

KSZ001>006-013>018-027>032-041>047-301900-
NORTHWEST KANSAS

CITY           SKY/WX    TMP DP  RH WIND       PRES   REMARKS
GOODLAND       MOSUNNY   56  44  64 N6        30.30F
6HR MIN TEMP:  46; 6HR MAX TEMP:  58;

HAYS           SUNNY     61  39  44 N18       30.26S
HILL CITY      SUNNY     62  40  44 N13       30.27F
6HR MIN TEMP:  47; 6HR MAX TEMP:  62;

RUSSELL        SUNNY     62  47  57 N15       30.23S
6HR MIN TEMP:  50; 6HR MAX TEMP:  62;

$$

KSZ061>065-074>080-084>089-301900-
SOUTHWEST KANSAS

CITY           SKY/WX    TMP DP  RH WIND       PRES   REMARKS
DODGE CITY     SUNNY     63  45  51 N20       30.27S
6HR MIN TEMP:  51; 6HR MAX TEMP:  63;

ELKHART          N/A     61  48  62 N10         N/A
GARDEN CITY    SUNNY     60  46  59 N12       30.28S
6HR MIN TEMP:  49; 6HR MAX TEMP:  61;

GREAT BEND     MOSUNNY   61  48  63 N13G20    30.24S
LIBERAL        PTSUNNY   61  48  63 NW10      30.30F
$$

KSZ066>073-081>083-090>101-301900-
SOUTHEAST KANSAS

CITY           SKY/WX    TMP DP  RH WIND       PRES   REMARKS
CHANUTE        CLOUDY    62  56  80 NW12      30.13S
6HR MIN TEMP:  58; 6HR MAX TEMP:  63;

COFFEYVILLE    CLOUDY    63  56  78 NW13      30.13R
6HR MIN TEMP:  60; 6HR MAX TEMP:  64;

HUTCHINSON     CLOUDY    64  49  57 N15       30.21F
6HR MIN TEMP:  54; 6HR MAX TEMP:  64;

MEDICINE LODGE   N/A     68  51  54 N12       30.20F
NEWTON         CLOUDY    55  46  71 N15       30.22R
PARSONS        CLOUDY    63  58  83 NW12      30.14S
6HR MIN TEMP:  60; 6HR MAX TEMP:  63;

WICHITA INTL   CLOUDY    61  49  64 N16       30.20S
6HR MIN TEMP:  55; 6HR MAX TEMP:  61;

WICHITA JABRA  CLOUDY    58  50  75 N13       30.19S
6HR MIN TEMP:  53; 6HR MAX TEMP:  59;

WICHITA MCCONL CLOUDY    59  51  74 N13       30.19S
WINFIELD       CLOUDY    60  52  74 N12       30.20S
6HR MIN TEMP:  56; 6HR MAX TEMP:  60;

$$

KSZ007>012-019>026-033>040-048>060-102>105-301900-
NORTHEAST KANSAS

CITY           SKY/WX    TMP DP  RH WIND       PRES   REMARKS
CONCORDIA      CLOUDY    58  48  69 N15G23    30.22F
6HR MIN TEMP:  50; 6HR MAX TEMP:  59; 6HR PCP: TRACE;

EMPORIA        CLOUDY    56  51  84 NW13      30.17R
6HR MIN TEMP:  53; 6HR MAX TEMP:  58;

LAWRENCE       CLOUDY    59  53  80 NW16      30.14S
6HR MIN TEMP:  55; 6HR MAX TEMP:  59;

MANHATTAN      CLOUDY    59  50  72 N8G16     30.19S
6HR MIN TEMP:  53; 6HR MAX TEMP:  60;

OLATHE IND     CLOUDY    60  54  80 NW16      30.13S
6HR MIN TEMP:  54; 6HR MAX TEMP:  60;

OLATHE EXE     CLOUDY    60  54  80 N12       30.11S
6HR MIN TEMP:  56; 6HR MAX TEMP:  61; 6HR PCP: TRACE;

SALINA         CLOUDY    60  49  66 N17       30.22S
6HR MIN TEMP:  53; 6HR MAX TEMP:  60;

TOPEKA BILLARD CLOUDY    59  53  80 NW9G21    30.16S
6HR MIN TEMP:  54; 6HR MAX TEMP:  60; 6HR PCP: TRACE;

TOPEKA FORBES  CLOUDY    59  52  77 NW13      30.15S
6HR MIN TEMP:  55; 6HR MAX TEMP:  59;

$$


USA.gov is the U.S. government's official web portal to all federal, state and local government web resources and services.